[[{"header":{"parameterUnit":"m.s-1","parameterCategory":1,"la1":30.2991,"la2":30.254,"lo1":-89.0895,"lo2":-89.0444,"dy":0.0017,"dx":0.0017,"nx":28,"ny":28,"refTime":"2024-12-25T09:00:00:Z","depth":0,"parameterNumber":2,"parameterNumberName":"U-component_of_WINDS"},"data":[0,0,0,0,0,0,0,0,0,0,0,0,0,0,0,0,0,0,0,0,0,0,0,0,0,0,0,0,0,0,0,0,0,0,0,0,0,0,0,0,0,0,0,0,0,0,0,0,0,0,0,0,0,0,0,0,0,0,-7.0484,-7.0484,0,-7.0486,-7.0486,-7.0486,-7.0331,-7.0327,-7.0323,-7.0319,-7.0322,-7.0326,-7.0329,0,0,0,0,0,0,0,0,0,0,0,0,0,-7.0346,-7.0349,-7.0484,-7.0484,-7.0484,-7.0486,-7.0486,-7.0486,-7.0332,-7.0327,-7.0322,-7.0317,-7.0321,-7.0325,-7.033,0,0,0,0,0,0,0,0,0,0,0,0,0,-7.0383,-7.035,-7.0484,-7.0407,-7.04,-7.0486,-7.0486,-7.0486,-7.0333,-7.0327,-7.0321,-7.0315,-7.0319,-7.0325,-7.033,-7.049,0,0,-7.0348,-7.0351,0,0,0,0,0,0,0,0,-7.0381,-7.0388,-7.0418,-7.0412,-7.0405,-7.0402,-7.0438,-7.0487,-7.0335,-7.0359,-7.0319,-7.0312,-7.0354,-7.0356,-7.037,-7.049,-7.049,-7.0349,-7.0352,-7.0355,-7.0357,0,0,0,0,0,0,0,-7.0379,-7.0387,-7.0484,-7.0419,-7.0411,-7.0373,-7.0371,-7.0447,-7.0391,-7.0356,-7.0345,-7.0347,-7.0349,-7.0365,-7.0369,-7.049,-7.0349,-7.0354,-7.0357,-7.036,-7.0741,-7.0747,0,0,0,0,0,0,-7.0386,-7.0386,-7.0484,-7.0484,-7.0378,-7.038,-7.0378,-7.0409,-7.0389,-7.038,-7.0352,-7.034,-7.0358,-7.0362,-7.0369,-7.0553,-7.0355,-7.036,-7.0364,-7.0734,-7.0742,-7.075,0,0,0,0,0,0,-7.0384,-7.0397,-7.0484,-7.0432,-7.0441,-7.0389,-7.0425,-7.0413,-7.0428,-7.0387,-7.0376,-7.0379,-7.0353,-7.036,-7.0461,-7.0551,-7.0363,-7.0368,-7.0727,-7.0737,-7.0746,-7.0924,0,0,0,0,0,0,-7.0381,-7.0397,-7.0456,-7.0435,-7.0444,-7.0577,-7.043,-7.0417,-7.0439,-7.0423,-7.0409,-7.0401,-7.0349,-7.0453,-7.0467,-7.0555,-7.0373,-7.0718,-7.0731,-7.0743,-7.091,-7.0939,-7.0963,0,0,0,0,0,-7.0376,-7.0506,-7.046,-7.0473,-7.0517,-7.0582,-7.0587,-7.0525,-7.0447,-7.0506,-7.048,-7.0401,-7.054,-7.0465,-7.0479,-7.0571,-7.0712,-7.0728,-7.0742,-7.0898,-7.0933,-7.0963,0,0,0,0,0,0,-7.0539,-7.0502,-7.045,-7.0577,-7.0584,-7.0556,-7.0628,-7.0565,-7.0594,-7.0577,-7.0499,-7.0497,-7.061,-7.0601,-7.0518,-7.0724,-7.0612,-7.0631,-7.0725,-7.0759,-7.0785,-7.0784,-7.0378,0,0,0,0,0,-7.059,-7.0645,-7.061,-7.0725,-7.0732,-7.0681,-7.0706,-7.0658,-7.0662,-7.0664,-7.0644,-7.0652,-7.0696,-7.0727,-7.0766,-7.0909,-7.0903,-7.0979,-7.1006,-7.1028,-7.1044,-7.1119,-7.1152,-7.0799,-7.0798,-7.0798,0,0,-7.0694,-7.0681,-7.0721,-7.0758,-7.0757,-7.0817,-7.0684,-7.0752,-7.0795,-7.0674,-7.0767,-7.0754,-7.0757,-7.0879,-7.0932,-7.0875,-7.1141,-7.1047,-7.1066,-7.1069,-7.1137,-7.1171,-7.1201,-7.0809,-7.0807,-7.0805,0,0,-7.0915,-7.0912,-7.1006,-7.101,-7.1011,-7.0977,-7.1,-7.0983,-7.0969,-7.1062,-7.0973,-7.1024,-7.1103,-7.1108,-7.1122,-7.1348,-7.1277,-7.1364,-7.1503,-7.1576,-7.1604,-7.1628,-7.1708,-7.1737,-7.138,-7.1381,-7.1381,0,-7.1044,-7.113,-7.1064,-7.1138,-7.1157,-7.1052,-7.1148,-7.1154,-7.1169,-7.1184,-7.1121,-7.1218,-7.1213,-7.1335,-7.139,-7.1405,-7.1429,-7.1363,-7.1605,-7.1629,-7.1651,-7.1725,-7.1756,-7.1391,-7.139,-7.1389,-7.1388,0,-7.1289,-7.1351,-7.1427,-7.1444,-7.1472,-7.1558,-7.1504,-7.1541,-7.1492,-7.1464,-7.1561,-7.1551,-7.1586,-7.1613,-7.1565,-7.1728,-7.1692,-7.1619,-7.1504,-7.1696,-7.1765,-7.1793,-7.1406,-7.1402,-7.1399,-7.1397,0,0,-7.1608,-7.159,-7.1619,-7.1625,-7.1621,-7.1667,-7.1749,-7.1784,-7.1816,-7.1831,-7.1897,-7.1968,-7.19,-7.1915,-7.1868,-7.1933,-7.2112,-7.185,-7.1849,-7.1898,-7.229,-7.2344,-7.2378,-7.2066,-7.2071,-7.2075,-7.2289,0,-7.182,-7.1957,-7.1901,-7.2042,-7.2098,-7.2001,-7.2072,-7.2078,-7.2055,-7.21,-7.2075,-7.2126,-7.2033,-7.2042,-7.2102,-7.2077,-7.2189,-7.2062,-7.2125,-7.2128,-7.2124,-7.2414,-7.247,-7.2672,-7.2316,-7.232,-7.2324,0,-7.2085,-7.2111,-7.2259,-7.2246,-7.2267,-7.2332,-7.236,-7.2404,-7.2409,-7.2388,-7.2408,-7.2346,-7.2425,-7.2314,-7.2422,-7.2336,-7.236,-7.2352,-7.2359,-7.2359,-7.2235,-7.2421,-7.2735,-7.2765,-7.2366,-7.2362,-7.2359,0,-7.23,-7.2373,-7.247,-7.248,-7.2468,-7.2515,-7.2513,-7.2512,-7.2537,-7.2562,-7.2578,-7.2613,-7.2631,-7.266,-7.261,-7.2534,-7.2724,-7.2609,-7.2708,-7.271,-7.275,-7.2747,-7.307,-7.277,-7.277,-7.2769,-7.2769,0,-7.2541,-7.2634,-7.2567,-7.2627,-7.2729,-7.2666,-7.2769,-7.2755,-7.2756,-7.2812,-7.2731,-7.2785,-7.2717,-7.2765,-7.2727,-7.2822,-7.2831,-7.2816,-7.2804,-7.2822,-7.2823,-7.2833,-7.2817,-7.2777,-7.2776,-7.2774,-7.2773,0,-7.2796,-7.2755,-7.2855,-7.2837,-7.2835,-7.2911,-7.2895,-7.295,-7.2923,-7.2995,-7.3008,-7.2967,-7.3019,-7.2973,-7.3024,-7.2998,-7.3123,-7.3093,-7.3121,-7.3112,-7.3213,-7.3203,-7.3551,-7.3593,-7.3269,-7.3272,-7.3275,0,-7.2951,-7.3021,-7.3011,-7.3043,-7.3045,-7.3098,-7.3123,-7.3065,-7.3095,-7.3107,-7.3161,-7.3207,-7.3239,-7.3328,-7.3302,-7.334,-7.3308,-7.3428,-7.3313,-7.3329,-7.3307,-7.3303,-7.3309,-7.345,-7.3454,-7.3457,-7.346,0,-7.3229,-7.3206,-7.3246,-7.3281,-7.3314,-7.3338,-7.3356,-7.3387,-7.3327,-7.3365,-7.3418,-7.3444,-7.3496,-7.3542,-7.3573,-7.357,-7.3505,-7.3497,-7.3521,-7.3538,-7.355,-7.3543,-7.3182,-7.3488,-7.3485,-7.3483,-7.3481,-7.348,-7.3436,-7.3494,-7.3497,-7.3545,-7.3553,-7.3572,-7.3622,-7.3604,-7.3647,-7.3684,-7.3648,-7.3712,-7.3717,-7.3751,-7.3757,-7.3806,-7.3756,-7.3792,-7.3801,-7.381,-7.3823,-7.3546,-7.3812,-7.3811,-7.381,-7.381,-7.3809,0,-7.3708,-7.3706,-7.3751,-7.3779,-7.3818,-7.3756,-7.3773,-7.3809,-7.3866,-7.3877,-7.3912,-7.3973,-7.4019,-7.3998,-7.4038,-7.4081,-7.4053,-7.4093,-7.4088,-7.4088,-7.3867,-7.3841,-7.4116,-7.4116,-7.4116,-7.4116,-7.4116,-7.4116,-7.3854,-7.3948,-7.3926,-7.4024,-7.4021,-7.4083,-7.4098,-7.4116,-7.4124,-7.4196,-7.4234,-7.4221,-7.4219,-7.4258,-7.4297,-7.429,-7.4307,-7.4359,-7.4341,-7.4134,-7.4103,-7.4074,-7.4049,-7.4364,-7.4364,-7.4557,-7.4559,-7.456]},{"header":{"parameterUnit":"m.s-1","parameterCategory":1,"la1":30.2991,"la2":30.254,"lo1":-89.0895,"lo2":-89.0444,"dy":0.0017,"dx":0.0017,"nx":28,"ny":28,"refTime":"2024-12-25T09:00:00:Z","depth":0,"parameterNumber":3,"parameterNumberName":"V-component_of_WINDS"},"data":[0,0,0,0,0,0,0,0,0,0,0,0,0,0,0,0,0,0,0,0,0,0,0,0,0,0,0,0,0,0,0,0,0,0,0,0,0,0,0,0,0,0,0,0,0,0,0,0,0,0,0,0,0,0,0,0,0,0,0.1795,0.1795,0,0.1805,0.1805,0.1805,0.1801,0.18,0.18,0.18,0.181,0.1811,0.1811,0,0,0,0,0,0,0,0,0,0,0,0,0,0.1772,0.1773,0.1795,0.1795,0.1795,0.1805,0.1805,0.1805,0.1801,0.18,0.18,0.18,0.181,0.1811,0.1811,0,0,0,0,0,0,0,0,0,0,0,0,0,0.1782,0.1773,0.1795,0.1794,0.1794,0.1805,0.1805,0.1805,0.1801,0.18,0.18,0.18,0.181,0.1811,0.1811,0.1824,0,0,0.1814,0.1814,0,0,0,0,0,0,0,0,0.1782,0.1783,0.1794,0.1794,0.1794,0.1801,0.1801,0.1811,0.1801,0.1798,0.18,0.1799,0.1807,0.1808,0.1811,0.1824,0.1825,0.1814,0.1814,0.1814,0.1815,0,0,0,0,0,0,0,0.1781,0.1783,0.1799,0.1794,0.1794,0.1793,0.1794,0.1803,0.1805,0.1798,0.1798,0.1799,0.1807,0.181,0.1811,0.1825,0.1814,0.1814,0.1815,0.1815,0.1851,0.1852,0,0,0,0,0,0,0.178,0.1782,0.1798,0.1799,0.1787,0.1794,0.1795,0.1799,0.1805,0.1805,0.18,0.1799,0.1809,0.181,0.1812,0.1828,0.1814,0.1815,0.1816,0.1851,0.1851,0.1852,0,0,0,0,0,0,0.178,0.1782,0.1798,0.179,0.1792,0.1795,0.1799,0.18,0.1803,0.1806,0.1806,0.1802,0.1809,0.1811,0.1821,0.1829,0.1816,0.1816,0.185,0.1851,0.1852,0.1861,0,0,0,0,0,0,0.1779,0.1781,0.1786,0.1791,0.1793,0.1807,0.18,0.18,0.1804,0.1803,0.1808,0.1809,0.1809,0.182,0.1822,0.1829,0.1817,0.185,0.185,0.1851,0.186,0.1862,0.1863,0,0,0,0,0,0.1778,0.1787,0.1786,0.1788,0.1798,0.1807,0.1809,0.1809,0.1805,0.1809,0.1812,0.1809,0.1827,0.1821,0.1823,0.1831,0.1849,0.185,0.1851,0.1859,0.1861,0.1863,0,0,0,0,0,0,0.1782,0.1788,0.1786,0.1797,0.1802,0.1807,0.1812,0.1811,0.1817,0.1816,0.1816,0.1817,0.1829,0.1831,0.1824,0.1845,0.1838,0.1839,0.1843,0.1845,0.1847,0.1846,0.1817,0,0,0,0,0,0.1784,0.1791,0.1796,0.1805,0.1807,0.181,0.1813,0.1813,0.1818,0.182,0.1823,0.1828,0.1836,0.184,0.1847,0.186,0.1862,0.1867,0.1868,0.187,0.1871,0.1881,0.1883,0.1856,0.1856,0.1856,0,0,0.1789,0.1793,0.1797,0.1806,0.1809,0.1817,0.1811,0.1819,0.1825,0.1821,0.1832,0.1835,0.1841,0.1853,0.1859,0.1855,0.188,0.1871,0.1872,0.1873,0.1882,0.1885,0.1887,0.1856,0.1856,0.1856,0,0,0.1801,0.1804,0.1813,0.1817,0.1824,0.1825,0.1828,0.1833,0.1835,0.1846,0.1844,0.1852,0.1864,0.1869,0.1873,0.189,0.1888,0.1892,0.1901,0.1911,0.1913,0.1915,0.1923,0.1925,0.1893,0.1894,0.1894,0,0.1805,0.1817,0.1817,0.1826,0.1831,0.1829,0.1839,0.1843,0.1851,0.1855,0.1851,0.1868,0.1872,0.1887,0.1891,0.1894,0.1898,0.1891,0.1912,0.1914,0.1916,0.1924,0.1927,0.1894,0.1894,0.1894,0.1894,0,0.1823,0.1831,0.1838,0.1847,0.1852,0.1862,0.1865,0.187,0.187,0.1873,0.1886,0.189,0.1899,0.1902,0.1902,0.1918,0.1916,0.1912,0.1905,0.192,0.1927,0.1929,0.1895,0.1895,0.1895,0.1894,0,0,0.1836,0.1848,0.185,0.1855,0.1863,0.187,0.188,0.1889,0.1895,0.1901,0.1911,0.1922,0.192,0.1924,0.1925,0.1933,0.1949,0.1928,0.1929,0.1933,0.1969,0.1973,0.1976,0.1947,0.1948,0.1948,0.1969,0,0.185,0.1868,0.187,0.1886,0.1895,0.1895,0.1904,0.191,0.1914,0.1922,0.1926,0.1935,0.193,0.1933,0.1941,0.1945,0.1956,0.1943,0.1957,0.1958,0.1957,0.1979,0.1982,0.2002,0.1972,0.1972,0.1972,0,0.1868,0.1876,0.1893,0.1903,0.1907,0.1915,0.1925,0.1933,0.1941,0.1943,0.195,0.195,0.1962,0.1954,0.1971,0.1963,0.1969,0.1972,0.1973,0.1975,0.1966,0.1983,0.2008,0.2011,0.1977,0.1976,0.1976,0,0.1877,0.1893,0.1906,0.191,0.1921,0.1927,0.1932,0.194,0.1946,0.1955,0.196,0.197,0.1976,0.1984,0.1987,0.1981,0.2005,0.1997,0.2008,0.2008,0.2013,0.2013,0.204,0.2015,0.2015,0.2015,0.2015,0,0.1893,0.1904,0.1911,0.1919,0.1932,0.1935,0.1948,0.1953,0.1961,0.197,0.197,0.198,0.1983,0.1993,0.1996,0.2011,0.2013,0.2016,0.2017,0.2017,0.2017,0.2021,0.202,0.2016,0.2016,0.2016,0.2015,0,0.1905,0.191,0.1925,0.1935,0.1938,0.1948,0.1957,0.1965,0.1969,0.1982,0.1985,0.1992,0.2004,0.2009,0.2023,0.2025,0.2043,0.2042,0.204,0.2041,0.2052,0.2052,0.2084,0.2089,0.206,0.206,0.206,0,0.1915,0.1924,0.1936,0.1943,0.1948,0.1959,0.1966,0.1971,0.1978,0.199,0.1998,0.201,0.2021,0.2041,0.2047,0.2059,0.2059,0.207,0.206,0.2061,0.2061,0.2061,0.2063,0.2071,0.2072,0.2072,0.2072,0,0.1932,0.1935,0.1945,0.1958,0.1967,0.1976,0.1986,0.1992,0.1998,0.2006,0.202,0.2028,0.2044,0.2057,0.207,0.2076,0.2076,0.2075,0.2078,0.2079,0.2078,0.208,0.2046,0.2074,0.2074,0.2074,0.2074,0.2074,0.1944,0.1953,0.1964,0.1977,0.1985,0.1994,0.2004,0.201,0.2021,0.2035,0.2037,0.2052,0.2063,0.208,0.2087,0.2099,0.2096,0.21,0.2102,0.2103,0.2105,0.2076,0.2101,0.2101,0.2101,0.2101,0.2101,0,0.1963,0.197,0.1982,0.1996,0.2007,0.2007,0.2018,0.2027,0.204,0.205,0.2061,0.2078,0.2091,0.21,0.2114,0.2122,0.2123,0.2126,0.2126,0.2128,0.2106,0.2102,0.2125,0.2125,0.2125,0.2125,0.2125,0.2125,0.1974,0.199,0.1994,0.2015,0.2023,0.2038,0.2045,0.2054,0.2063,0.2082,0.2093,0.2099,0.2109,0.2125,0.2138,0.214,0.2146,0.2149,0.2151,0.2131,0.2129,0.2126,0.2123,0.215,0.215,0.2172,0.2173,0.2173]}]]